sat.trackr.live / text

‹ back to catalog

ONEWEB-0006

NORAD 44061 · 2019-010E

PAYLOAD ACTIVE UNKNOWN

§ Identity

Operator
Country
UK
Launch date
2019-02-27
Launch site
FRGUI
Launch vehicle
Mass (kg)
RCS (m²)

Purposes: comms

External: N2YO · Heavens-Above · Gunter

§ Orbital elements

Epoch: 2026-05-24T20:11:26.160864Z

Period
109.46 min
Inclination
87.8999°
Eccentricity
0.0001738
Mean motion
13.15550564 rev/d
Perigee alt
1,200.4 km
Apogee alt
1,203.1 km
Semi-major
7,579.9 km
B*
2.5930e-5
RAAN
263.8353°
Arg perigee
98.3395°
Mean anomaly
261.7932°
Rev number
34,835

§ Raw data

ONEWEB-00061 44061U 19010E   26144.84127501  .00000023  00000+0  25930-4 0  99982 44061  87.8999 263.8353 0001738  98.3395 261.7932 13.15550564348351

JSON: /api/v1/satellites/44061 · /tle

For live sub-satellite position, see the globe view (requires WebGL).

§ Visibility from observer

Set your observer location to see the next 7 days of passes ≥ 10°. The values pass through the URL so the page stays shareable.

No JS? Fill the form by hand. The geolocation button needs JavaScript.